Location: Anjeux
(47.8815°N, 6.2076°E)
Time: 10:49:54
(UTC+00:00)

AO-27 - Pass Details

Date: 12 December 2021
Orbit: 784 x 798 km, 98.9° (Epoch: 23 January)

Event Time Altitude Azimuth Distance (km) Brightness Sun altitude
Rises 05:55:39 0° 27° (NNE) 3,310 11.0 -12.7°
Reaches altitude 10° 05:58:38 10° 44° (NE) 2,372 10.5 -12.2°
Maximum altitude 06:02:25 20° 91° (E) 1,770 10.5 -11.6°
Drops below altitude 10° 06:06:10 10° 138° (SE) 2,353 11.3 -11.0°
Sets 06:09:06 0° 155° (SSE) 3,274 11.7 -10.6°
